owner,sensor,date,latitude,longitude,vertical_datum,wind_speed,wind_to_direction,wind_speed_of_gust,qcFlag 
TCOON,ioos:station:TCOON:003:1,2004-10-01T00:00:00Z,26.8015,-97.4706,0.0,8.0,110.0,8.0,'11111222,11111222,11111222' 
TCOON,ioos:station:TCOON:003:1,2004-10-01T01:00:00Z,26.8015,-97.4706,0.0,6.0,120.0,7.0,'11111222,11111222,11111222' 
TCOON,ioos:station:TCOON:003:1,2004-10-01T02:00:00Z,26.8015,-97.4706,0.0,5.0,120.0,7.0,'11111222,11111222,11111222' 
TCOON,ioos:station:TCOON:003:1,2004-10-01T03:00:00Z,26.8015,-97.4706,0.0,6.0,120.0,7.0,'11111222,11111222,11111222' 
TCOON,ioos:station:TCOON:003:1,2004-10-01T04:00:00Z,26.8015,-97.4706,0.0,6.0,120.0,9.0,'11111222,11111222,11111222' 
TCOON,ioos:station:TCOON:003:1,2004-10-01T05:00:00Z,26.8015,-97.4706,0.0,7.0,120.0,8.0,'11111222,11111222,11111222' 
TCOON,ioos:station:TCOON:003:1,2004-10-01T06:00:00Z,26.8015,-97.4706,0.0,7.0,130.0,9.0,'11111222,11111222,11111222' 
TCOON,ioos:station:TCOON:003:1,2004-10-01T07:00:00Z,26.8015,-97.4706,0.0,7.0,130.0,9.0,'11111222,11111222,11111222' 
TCOON,ioos:station:TCOON:003:1,2004-10-01T08:00:00Z,26.8015,-97.4706,0.0,7.0,130.0,9.0,'11111222,11111222,11111222' 
TCOON,ioos:station:TCOON:003:1,2004-10-01T09:00:00Z,26.8015,-97.4706,0.0,7.0,130.0,8.0,'11111222,11111222,11111222' 
TCOON,ioos:station:TCOON:003:1,2004-10-01T10:00:00Z,26.8015,-97.4706,0.0,7.0,140.0,8.0,'11111222,11111222,11111222' 
TCOON,ioos:station:TCOON:003:1,2004-10-01T11:00:00Z,26.8015,-97.4706,0.0,5.0,140.0,7.0,'11111222,11111222,11111222' 
TCOON,ioos:station:TCOON:003:1,2004-10-01T13:00:00Z,26.8015,-97.4706,0.0,6.0,140.0,7.0,'11111222,11111222,11111222' 
TCOON,ioos:station:TCOON:003:1,2004-10-01T14:00:00Z,26.8015,-97.4706,0.0,6.0,140.0,7.0,'11111222,11111222,11111222' 
TCOON,ioos:station:TCOON:003:1,2004-10-01T15:00:00Z,26.8015,-97.4706,0.0,6.0,150.0,7.0,'11111222,11111222,11111222' 
TCOON,ioos:station:TCOON:003:1,2004-10-01T16:00:00Z,26.8015,-97.4706,0.0,5.0,130.0,9.0,'11111222,11111222,11111222' 
TCOON,ioos:station:TCOON:003:1,2004-10-01T17:00:00Z,26.8015,-97.4706,0.0,7.0,140.0,9.0,'11111222,11111222,11111222' 
TCOON,ioos:station:TCOON:003:1,2004-10-01T18:00:00Z,26.8015,-97.4706,0.0,9.0,140.0,9.0,'11111222,11111222,11111222' 
TCOON,ioos:station:TCOON:003:1,2004-10-01T19:00:00Z,26.8015,-97.4706,0.0,8.0,140.0,11.0,'11111222,11111222,11111222' 
TCOON,ioos:station:TCOON:003:1,2004-10-01T20:00:00Z,26.8015,-97.4706,0.0,9.0,140.0,9.0,'11111222,11111222,11111222' 
TCOON,ioos:station:TCOON:003:1,2004-10-01T21:00:00Z,26.8015,-97.4706,0.0,9.0,140.0,9.0,'11111222,11111222,11111222' 
TCOON,ioos:station:TCOON:003:1,2004-10-01T22:00:00Z,26.8015,-97.4706,0.0,9.0,140.0,9.0,'11111222,11111222,11111222' 
TCOON,ioos:station:TCOON:003:1,2004-10-01T23:00:00Z,26.8015,-97.4706,0.0,8.0,140.0,9.0,'11111222,11111222,11111222' 
TCOON,ioos:station:TCOON:003:1,2004-10-02T00:00:00Z,26.8015,-97.4706,0.0,8.0,130.0,9.0,'11111222,11111222,11111222' 
TCOON,ioos:station:TCOON:003:1,2004-10-02T01:00:00Z,26.8015,-97.4706,0.0,8.0,140.0,9.0,'11111222,11111222,11111222' 
TCOON,ioos:station:TCOON:003:1,2004-10-02T02:00:00Z,26.8015,-97.4706,0.0,7.0,150.0,8.0,'11111222,11111222,11111222' 
TCOON,ioos:station:TCOON:003:1,2004-10-02T03:00:00Z,26.8015,-97.4706,0.0,5.0,150.0,7.0,'11111222,11111222,11111222' 
TCOON,ioos:station:TCOON:003:1,2004-10-02T04:00:00Z,26.8015,-97.4706,0.0,6.0,150.0,7.0,'11111222,11111222,11111222' 
TCOON,ioos:station:TCOON:003:1,2004-10-02T05:00:00Z,26.8015,-97.4706,0.0,5.0,150.0,6.0,'11111222,11111222,11111222' 
TCOON,ioos:station:TCOON:003:1,2004-10-02T06:00:00Z,26.8015,-97.4706,0.0,5.0,150.0,6.0,'11111222,11111222,11111222' 
TCOON,ioos:station:TCOON:003:1,2004-10-02T07:00:00Z,26.8015,-97.4706,0.0,5.0,150.0,6.0,'11111222,11111222,11111222' 
TCOON,ioos:station:TCOON:003:1,2004-10-02T10:00:00Z,26.8015,-97.4706,0.0,4.0,150.0,6.0,'11111222,11111222,11111222' 
TCOON,ioos:station:TCOON:003:1,2004-10-02T11:00:00Z,26.8015,-97.4706,0.0,5.0,150.0,6.0,'11111222,11111222,11111222' 
TCOON,ioos:station:TCOON:003:1,2004-10-02T12:00:00Z,26.8015,-97.4706,0.0,5.0,140.0,6.0,'11111222,11111222,11111222' 
TCOON,ioos:station:TCOON:003:1,2004-10-02T13:00:00Z,26.8015,-97.4706,0.0,4.0,150.0,4.0,'11111222,11111222,11111222' 
TCOON,ioos:station:TCOON:003:1,2004-10-02T15:00:00Z,26.8015,-97.4706,0.0,2.0,170.0,5.0,'11111222,11111222,11111222' 
TCOON,ioos:station:TCOON:003:1,2004-10-02T16:00:00Z,26.8015,-97.4706,0.0,4.0,160.0,4.0,'11111222,11111222,11111222' 
TCOON,ioos:station:TCOON:003:1,2004-10-02T17:00:00Z,26.8015,-97.4706,0.0,3.0,160.0,7.0,'11111222,11111222,11111222' 
TCOON,ioos:station:TCOON:003:1,2004-10-02T18:00:00Z,26.8015,-97.4706,0.0,6.0,150.0,9.0,'11111222,11111222,11111222' 
TCOON,ioos:station:TCOON:003:1,2004-10-02T19:00:00Z,26.8015,-97.4706,0.0,5.0,140.0,7.0,'11111222,11111222,11111222' 
TCOON,ioos:station:TCOON:003:1,2004-10-02T20:00:00Z,26.8015,-97.4706,0.0,6.0,90.0,7.0,'11111222,11111222,11111222' 
TCOON,ioos:station:TCOON:003:1,2004-10-02T21:00:00Z,26.8015,-97.4706,0.0,5.0,100.0,6.0,'11111222,11111222,11111222' 
TCOON,ioos:station:TCOON:003:1,2004-10-02T22:00:00Z,26.8015,-97.4706,0.0,5.0,100.0,7.0,'11111222,11111222,11111222' 
TCOON,ioos:station:TCOON:003:1,2004-10-02T23:00:00Z,26.8015,-97.4706,0.0,7.0,100.0,8.0,'11111222,11111222,11111222' 
TCOON,ioos:station:TCOON:003:1,2004-10-03T00:00:00Z,26.8015,-97.4706,0.0,6.0,90.0,7.0,'11111222,11111222,11111222' 
TCOON,ioos:station:TCOON:003:1,2004-10-03T01:00:00Z,26.8015,-97.4706,0.0,4.0,110.0,4.0,'11111222,11111222,11111222' 
TCOON,ioos:station:TCOON:003:1,2004-10-03T02:00:00Z,26.8015,-97.4706,0.0,2.0,110.0,4.0,'11111222,11111222,11111222' 
TCOON,ioos:station:TCOON:003:1,2004-10-03T03:00:00Z,26.8015,-97.4706,0.0,3.0,110.0,4.0,'11111222,11111222,11111222' 
TCOON,ioos:station:TCOON:003:1,2004-10-03T04:00:00Z,26.8015,-97.4706,0.0,2.0,110.0,2.0,'11111222,11111222,11111222' 
TCOON,ioos:station:TCOON:003:1,2004-10-03T05:00:00Z,26.8015,-97.4706,0.0,2.0,110.0,3.0,'11111222,11111222,11111222' 
TCOON,ioos:station:TCOON:003:1,2004-10-03T06:00:00Z,26.8015,-97.4706,0.0,3.0,100.0,3.0,'11111222,11111222,11111222' 
TCOON,ioos:station:TCOON:003:1,2004-10-03T07:00:00Z,26.8015,-97.4706,0.0,2.0,110.0,4.0,'11111222,11111222,11111222' 
TCOON,ioos:station:TCOON:003:1,2004-10-03T08:00:00Z,26.8015,-97.4706,0.0,3.0,120.0,4.0,'11111222,11111222,11111222' 
TCOON,ioos:station:TCOON:003:1,2004-10-03T09:00:00Z,26.8015,-97.4706,0.0,1.0,120.0,4.0,'11111222,11111222,11111222' 
TCOON,ioos:station:TCOON:003:1,2004-10-03T10:00:00Z,26.8015,-97.4706,0.0,0.0,0.0,0.0,'11111222,11111222,11111222' 
TCOON,ioos:station:TCOON:003:1,2004-10-03T11:00:00Z,26.8015,-97.4706,0.0,0.0,0.0,0.0,'11111222,11111222,11111222' 
TCOON,ioos:station:TCOON:003:1,2004-10-03T12:00:00Z,26.8015,-97.4706,0.0,1.0,290.0,7.0,'11111222,11111222,11111222' 
TCOON,ioos:station:TCOON:003:1,2004-10-03T13:00:00Z,26.8015,-97.4706,0.0,4.0,0.0,6.0,'11111222,11111222,11111222' 
TCOON,ioos:station:TCOON:003:1,2004-10-03T14:00:00Z,26.8015,-97.4706,0.0,1.0,10.0,9.0,'11111222,11111222,11111222' 
TCOON,ioos:station:TCOON:003:1,2004-10-03T15:00:00Z,26.8015,-97.4706,0.0,6.0,80.0,7.0,'11111222,11111222,11111222' 
TCOON,ioos:station:TCOON:003:1,2004-10-03T16:00:00Z,26.8015,-97.4706,0.0,1.0,80.0,3.0,'11111222,11111222,11111222' 
TCOON,ioos:station:TCOON:003:1,2004-10-03T17:00:00Z,26.8015,-97.4706,0.0,2.0,20.0,8.0,'11111222,11111222,11111222' 
TCOON,ioos:station:TCOON:003:1,2004-10-03T18:00:00Z,26.8015,-97.4706,0.0,5.0,70.0,7.0,'11111222,11111222,11111222' 
TCOON,ioos:station:TCOON:003:1,2004-10-03T19:00:00Z,26.8015,-97.4706,0.0,4.0,60.0,7.0,'11111222,11111222,11111222' 
TCOON,ioos:station:TCOON:003:1,2004-10-03T20:00:00Z,26.8015,-97.4706,0.0,4.0,60.0,7.0,'11111222,11111222,11111222' 
TCOON,ioos:station:TCOON:003:1,2004-10-03T21:00:00Z,26.8015,-97.4706,0.0,5.0,70.0,7.0,'11111222,11111222,11111222' 
TCOON,ioos:station:TCOON:003:1,2004-10-03T22:00:00Z,26.8015,-97.4706,0.0,4.0,80.0,6.0,'11111222,11111222,11111222' 
TCOON,ioos:station:TCOON:003:1,2004-10-03T23:00:00Z,26.8015,-97.4706,0.0,4.0,60.0,5.0,'11111222,11111222,11111222' 
TCOON,ioos:station:TCOON:003:1,2004-10-04T00:00:00Z,26.8015,-97.4706,0.0,4.0,80.0,5.0,'11111222,11111222,11111222' 
TCOON,ioos:station:TCOON:003:1,2004-10-04T01:00:00Z,26.8015,-97.4706,0.0,4.0,80.0,5.0,'11111222,11111222,11111222' 
TCOON,ioos:station:TCOON:003:1,2004-10-04T02:00:00Z,26.8015,-97.4706,0.0,3.0,70.0,3.0,'11111222,11111222,11111222' 
TCOON,ioos:station:TCOON:003:1,2004-10-04T03:00:00Z,26.8015,-97.4706,0.0,3.0,80.0,4.0,'11111222,11111222,11111222' 
TCOON,ioos:station:TCOON:003:1,2004-10-04T04:00:00Z,26.8015,-97.4706,0.0,4.0,100.0,5.0,'11111222,11111222,11111222' 
TCOON,ioos:station:TCOON:003:1,2004-10-04T05:00:00Z,26.8015,-97.4706,0.0,3.0,90.0,4.0,'11111222,11111222,11111222' 
TCOON,ioos:station:TCOON:003:1,2004-10-04T06:00:00Z,26.8015,-97.4706,0.0,3.0,90.0,4.0,'11111222,11111222,11111222' 
TCOON,ioos:station:TCOON:003:1,2004-10-04T07:00:00Z,26.8015,-97.4706,0.0,3.0,80.0,5.0,'11111222,11111222,11111222' 
TCOON,ioos:station:TCOON:003:1,2004-10-04T08:00:00Z,26.8015,-97.4706,0.0,4.0,100.0,5.0,'11111222,11111222,11111222' 
TCOON,ioos:station:TCOON:003:1,2004-10-04T09:00:00Z,26.8015,-97.4706,0.0,2.0,100.0,2.0,'11111222,11111222,11111222' 
TCOON,ioos:station:TCOON:003:1,2004-10-04T10:00:00Z,26.8015,-97.4706,0.0,1.0,100.0,99.0,'11111222,11111222,11144222' 
TCOON,ioos:station:TCOON:003:1,2004-10-04T11:00:00Z,26.8015,-97.4706,0.0,2.0,100.0,2.0,'11111222,11111222,11111222' 
TCOON,ioos:station:TCOON:003:1,2004-10-04T13:00:00Z,26.8015,-97.4706,0.0,1.0,350.0,3.0,'11111222,11111222,11111222' 
TCOON,ioos:station:TCOON:003:1,2004-10-04T14:00:00Z,26.8015,-97.4706,0.0,2.0,180.0,99.0,'11111222,11111222,11144222' 
TCOON,ioos:station:TCOON:003:1,2004-10-04T15:00:00Z,26.8015,-97.4706,0.0,0.0,0.0,0.0,'11111222,11111222,11111222' 
TCOON,ioos:station:TCOON:003:1,2004-10-04T16:00:00Z,26.8015,-97.4706,0.0,0.0,0.0,2.0,'11111222,11111222,11111222' 
TCOON,ioos:station:TCOON:003:1,2004-10-04T18:00:00Z,26.8015,-97.4706,0.0,0.0,0.0,0.0,'11111222,11111222,11111222' 
TCOON,ioos:station:TCOON:003:1,2004-10-04T20:00:00Z,26.8015,-97.4706,0.0,4.0,90.0,8.0,'11111222,11111222,11111222' 
TCOON,ioos:station:TCOON:003:1,2004-10-04T22:00:00Z,26.8015,-97.4706,0.0,5.0,70.0,8.0,'11111222,11111222,11111222' 
TCOON,ioos:station:TCOON:003:1,2004-10-04T23:00:00Z,26.8015,-97.4706,0.0,7.0,80.0,9.0,'11111222,11111222,11111222' 
TCOON,ioos:station:TCOON:003:1,2004-10-05T00:00:00Z,26.8015,-97.4706,0.0,7.0,90.0,8.0,'11111222,11111222,11111222' 
TCOON,ioos:station:TCOON:003:1,2004-10-05T01:00:00Z,26.8015,-97.4706,0.0,5.0,100.0,7.0,'11111222,11111222,11111222' 
TCOON,ioos:station:TCOON:003:1,2004-10-05T05:00:00Z,26.8015,-97.4706,0.0,6.0,90.0,7.0,'11111222,11111222,11111222' 
TCOON,ioos:station:TCOON:003:1,2004-10-05T06:00:00Z,26.8015,-97.4706,0.0,5.0,90.0,6.0,'11111222,11111222,11111222' 
TCOON,ioos:station:TCOON:003:1,2004-10-05T07:00:00Z,26.8015,-97.4706,0.0,4.0,100.0,5.0,'11111222,11111222,11111222' 
TCOON,ioos:station:TCOON:003:1,2004-10-05T08:00:00Z,26.8015,-97.4706,0.0,3.0,90.0,4.0,'11111222,11111222,11111222' 
TCOON,ioos:station:TCOON:003:1,2004-10-05T09:00:00Z,26.8015,-97.4706,0.0,3.0,90.0,3.0,'11111222,11111222,11111222' 
TCOON,ioos:station:TCOON:003:1,2004-10-05T10:00:00Z,26.8015,-97.4706,0.0,2.0,90.0,2.0,'11111222,11111222,11111222' 
TCOON,ioos:station:TCOON:003:1,2004-10-05T11:00:00Z,26.8015,-97.4706,0.0,0.0,0.0,8.0,'11111222,11111222,11111222' 
TCOON,ioos:station:TCOON:003:1,2004-10-05T12:00:00Z,26.8015,-97.4706,0.0,0.0,0.0,3.0,'11111222,11111222,11111222' 
TCOON,ioos:station:TCOON:003:1,2004-10-05T13:00:00Z,26.8015,-97.4706,0.0,2.0,0.0,5.0,'11111222,11111222,11111222' 
TCOON,ioos:station:TCOON:003:1,2004-10-05T14:00:00Z,26.8015,-97.4706,0.0,2.0,340.0,3.0,'11111222,11111222,11111222' 
TCOON,ioos:station:TCOON:003:1,2004-10-05T16:00:00Z,26.8015,-97.4706,0.0,4.0,100.0,7.0,'11111222,11111222,11111222' 
TCOON,ioos:station:TCOON:003:1,2004-10-05T17:00:00Z,26.8015,-97.4706,0.0,4.0,80.0,7.0,'11111222,11111222,11111222' 
TCOON,ioos:station:TCOON:003:1,2004-10-05T18:00:00Z,26.8015,-97.4706,0.0,5.0,90.0,8.0,'11111222,11111222,11111222' 
TCOON,ioos:station:TCOON:003:1,2004-10-05T19:00:00Z,26.8015,-97.4706,0.0,6.0,80.0,9.0,'11111222,11111222,11111222' 
TCOON,ioos:station:TCOON:003:1,2004-10-05T20:00:00Z,26.8015,-97.4706,0.0,6.0,70.0,7.0,'11111222,11111222,11111222' 
TCOON,ioos:station:TCOON:003:1,2004-10-05T22:00:00Z,26.8015,-97.4706,0.0,4.0,90.0,5.0,'11111222,11111222,11111222' 
TCOON,ioos:station:TCOON:003:1,2004-10-05T23:00:00Z,26.8015,-97.4706,0.0,4.0,90.0,5.0,'11111222,11111222,11111222' 
TCOON,ioos:station:TCOON:003:1,2004-10-06T00:00:00Z,26.8015,-97.4706,0.0,2.0,90.0,3.0,'11111222,11111222,11111222' 
TCOON,ioos:station:TCOON:003:1,2004-10-06T01:00:00Z,26.8015,-97.4706,0.0,1.0,100.0,8.0,'11111222,11111222,11111222' 
TCOON,ioos:station:TCOON:003:1,2004-10-06T02:00:00Z,26.8015,-97.4706,0.0,4.0,50.0,7.0,'11111222,11111222,11111222' 
TCOON,ioos:station:TCOON:003:1,2004-10-06T03:00:00Z,26.8015,-97.4706,0.0,7.0,90.0,9.0,'11111222,11111222,11111222' 
TCOON,ioos:station:TCOON:003:1,2004-10-06T04:00:00Z,26.8015,-97.4706,0.0,0.0,0.0,4.0,'11111222,11111222,11111222' 
TCOON,ioos:station:TCOON:003:1,2004-10-06T05:00:00Z,26.8015,-97.4706,0.0,3.0,80.0,6.0,'11111222,11111222,11111222' 
TCOON,ioos:station:TCOON:003:1,2004-10-06T06:00:00Z,26.8015,-97.4706,0.0,6.0,80.0,7.0,'11111222,11111222,11111222' 
TCOON,ioos:station:TCOON:003:1,2004-10-06T07:00:00Z,26.8015,-97.4706,0.0,3.0,80.0,7.0,'11111222,11111222,11111222' 
TCOON,ioos:station:TCOON:003:1,2004-10-06T08:00:00Z,26.8015,-97.4706,0.0,2.0,110.0,5.0,'11111222,11111222,11111222' 
TCOON,ioos:station:TCOON:003:1,2004-10-06T09:00:00Z,26.8015,-97.4706,0.0,4.0,100.0,5.0,'11111222,11111222,11111222' 
TCOON,ioos:station:TCOON:003:1,2004-10-06T10:00:00Z,26.8015,-97.4706,0.0,1.0,100.0,2.0,'11111222,11111222,11111222' 
TCOON,ioos:station:TCOON:003:1,2004-10-06T11:00:00Z,26.8015,-97.4706,0.0,1.0,100.0,99.0,'11111222,11111222,11144222' 
TCOON,ioos:station:TCOON:003:1,2004-10-06T12:00:00Z,26.8015,-97.4706,0.0,3.0,110.0,99.0,'11111222,11111222,11144222' 
TCOON,ioos:station:TCOON:003:1,2004-10-06T13:00:00Z,26.8015,-97.4706,0.0,0.0,0.0,0.0,'11111222,11111222,11111222' 
TCOON,ioos:station:TCOON:003:1,2004-10-06T14:00:00Z,26.8015,-97.4706,0.0,5.0,70.0,7.0,'11111222,11111222,11111222' 
TCOON,ioos:station:TCOON:003:1,2004-10-06T16:00:00Z,26.8015,-97.4706,0.0,8.0,130.0,9.0,'11111222,11111222,11111222' 
TCOON,ioos:station:TCOON:003:1,2004-10-06T17:00:00Z,26.8015,-97.4706,0.0,4.0,180.0,5.0,'11111222,11111222,11111222' 
TCOON,ioos:station:TCOON:003:1,2004-10-06T18:00:00Z,26.8015,-97.4706,0.0,2.0,170.0,3.0,'11111222,11111222,11111222' 
TCOON,ioos:station:TCOON:003:1,2004-10-06T19:00:00Z,26.8015,-97.4706,0.0,2.0,160.0,3.0,'11111222,11111222,11111222' 
TCOON,ioos:station:TCOON:003:1,2004-10-06T20:00:00Z,26.8015,-97.4706,0.0,2.0,160.0,3.0,'11111222,11111222,11111222' 
TCOON,ioos:station:TCOON:003:1,2004-10-06T21:00:00Z,26.8015,-97.4706,0.0,2.0,140.0,9.0,'11111222,11111222,11111222' 
TCOON,ioos:station:TCOON:003:1,2004-10-06T23:00:00Z,26.8015,-97.4706,0.0,6.0,110.0,6.0,'11111222,11111222,11111222' 
TCOON,ioos:station:TCOON:003:1,2004-10-07T00:00:00Z,26.8015,-97.4706,0.0,4.0,110.0,5.0,'11111222,11111222,11111222' 
TCOON,ioos:station:TCOON:003:1,2004-10-07T01:00:00Z,26.8015,-97.4706,0.0,2.0,90.0,5.0,'11111222,11111222,11111222' 
TCOON,ioos:station:TCOON:003:1,2004-10-07T02:00:00Z,26.8015,-97.4706,0.0,5.0,90.0,9.0,'11111222,11111222,11111222' 
TCOON,ioos:station:TCOON:003:1,2004-10-07T03:00:00Z,26.8015,-97.4706,0.0,7.0,100.0,8.0,'11111222,11111222,11111222' 
TCOON,ioos:station:TCOON:003:1,2004-10-07T06:00:00Z,26.8015,-97.4706,0.0,4.0,130.0,9.0,'11111222,11111222,11111222' 
TCOON,ioos:station:TCOON:003:1,2004-10-07T07:00:00Z,26.8015,-97.4706,0.0,4.0,180.0,5.0,'11111222,11111222,11111222' 
TCOON,ioos:station:TCOON:003:1,2004-10-07T09:00:00Z,26.8015,-97.4706,0.0,0.0,0.0,0.0,'11111222,11111222,11111222' 
TCOON,ioos:station:TCOON:003:1,2004-10-07T10:00:00Z,26.8015,-97.4706,0.0,0.0,0.0,0.0,'11111222,11111222,11111222' 
TCOON,ioos:station:TCOON:003:1,2004-10-07T11:00:00Z,26.8015,-97.4706,0.0,0.0,0.0,3.0,'11111222,11111222,11111222' 
TCOON,ioos:station:TCOON:003:1,2004-10-07T14:00:00Z,26.8015,-97.4706,0.0,2.0,310.0,99.0,'11111222,11111222,11144222' 
TCOON,ioos:station:TCOON:003:1,2004-10-07T15:00:00Z,26.8015,-97.4706,0.0,0.0,0.0,0.0,'11111222,11111222,11111222' 
TCOON,ioos:station:TCOON:003:1,2004-10-08T12:00:00Z,26.8015,-97.4706,0.0,4.0,340.0,7.0,'11111222,11111222,11111222' 
TCOON,ioos:station:TCOON:003:1,2004-10-08T13:00:00Z,26.8015,-97.4706,0.0,6.0,320.0,7.0,'11111222,11111222,11111222' 
TCOON,ioos:station:TCOON:003:1,2004-10-08T14:00:00Z,26.8015,-97.4706,0.0,6.0,340.0,8.0,'11111222,11111222,11111222' 
TCOON,ioos:station:TCOON:003:1,2004-10-08T15:00:00Z,26.8015,-97.4706,0.0,7.0,330.0,8.0,'11111222,11111222,11111222' 
TCOON,ioos:station:TCOON:003:1,2004-10-08T16:00:00Z,26.8015,-97.4706,0.0,7.0,310.0,8.0,'11111222,11111222,11111222' 
TCOON,ioos:station:TCOON:003:1,2004-10-08T17:00:00Z,26.8015,-97.4706,0.0,6.0,310.0,8.0,'11111222,11111222,11111222' 
TCOON,ioos:station:TCOON:003:1,2004-10-08T18:00:00Z,26.8015,-97.4706,0.0,7.0,340.0,9.0,'11111222,11111222,11111222' 
TCOON,ioos:station:TCOON:003:1,2004-10-08T19:00:00Z,26.8015,-97.4706,0.0,8.0,340.0,9.0,'11111222,11111222,11111222' 
TCOON,ioos:station:TCOON:003:1,2004-10-08T20:00:00Z,26.8015,-97.4706,0.0,6.0,10.0,8.0,'11111222,11111222,11111222' 
TCOON,ioos:station:TCOON:003:1,2004-10-08T21:00:00Z,26.8015,-97.4706,0.0,5.0,10.0,9.0,'11111222,11111222,11111222' 
TCOON,ioos:station:TCOON:003:1,2004-10-08T22:00:00Z,26.8015,-97.4706,0.0,8.0,20.0,9.0,'11111222,11111222,11111222' 
TCOON,ioos:station:TCOON:003:1,2004-10-08T23:00:00Z,26.8015,-97.4706,0.0,8.0,20.0,8.0,'11111222,11111222,11111222' 
TCOON,ioos:station:TCOON:003:1,2004-10-09T00:00:00Z,26.8015,-97.4706,0.0,5.0,20.0,7.0,'11111222,11111222,11111222' 
TCOON,ioos:station:TCOON:003:1,2004-10-09T01:00:00Z,26.8015,-97.4706,0.0,4.0,20.0,5.0,'11111222,11111222,11111222' 
TCOON,ioos:station:TCOON:003:1,2004-10-09T04:00:00Z,26.8015,-97.4706,0.0,5.0,320.0,6.0,'11111222,11111222,11111222' 
TCOON,ioos:station:TCOON:003:1,2004-10-09T05:00:00Z,26.8015,-97.4706,0.0,4.0,320.0,5.0,'11111222,11111222,11111222' 
TCOON,ioos:station:TCOON:003:1,2004-10-09T07:00:00Z,26.8015,-97.4706,0.0,4.0,320.0,7.0,'11111222,11111222,11111222' 
TCOON,ioos:station:TCOON:003:1,2004-10-09T08:00:00Z,26.8015,-97.4706,0.0,6.0,320.0,7.0,'11111222,11111222,11111222' 
TCOON,ioos:station:TCOON:003:1,2004-10-09T09:00:00Z,26.8015,-97.4706,0.0,5.0,320.0,6.0,'11111222,11111222,11111222' 
TCOON,ioos:station:TCOON:003:1,2004-10-09T10:00:00Z,26.8015,-97.4706,0.0,4.0,330.0,5.0,'11111222,11111222,11111222' 
TCOON,ioos:station:TCOON:003:1,2004-10-09T11:00:00Z,26.8015,-97.4706,0.0,4.0,330.0,6.0,'11111222,11111222,11111222' 
TCOON,ioos:station:TCOON:003:1,2004-10-09T12:00:00Z,26.8015,-97.4706,0.0,5.0,330.0,7.0,'11111222,11111222,11111222' 
TCOON,ioos:station:TCOON:003:1,2004-10-09T13:00:00Z,26.8015,-97.4706,0.0,6.0,320.0,7.0,'11111222,11111222,11111222' 
TCOON,ioos:station:TCOON:003:1,2004-10-09T14:00:00Z,26.8015,-97.4706,0.0,6.0,330.0,8.0,'11111222,11111222,11111222' 
TCOON,ioos:station:TCOON:003:1,2004-10-09T15:00:00Z,26.8015,-97.4706,0.0,6.0,340.0,9.0,'11111222,11111222,11111222' 
TCOON,ioos:station:TCOON:003:1,2004-10-09T16:00:00Z,26.8015,-97.4706,0.0,8.0,340.0,9.0,'11111222,11111222,11111222' 
TCOON,ioos:station:TCOON:003:1,2004-10-09T17:00:00Z,26.8015,-97.4706,0.0,8.0,330.0,9.0,'11111222,11111222,11111222' 
TCOON,ioos:station:TCOON:003:1,2004-10-09T19:00:00Z,26.8015,-97.4706,0.0,6.0,0.0,8.0,'11111222,11111222,11111222' 
TCOON,ioos:station:TCOON:003:1,2004-10-09T20:00:00Z,26.8015,-97.4706,0.0,5.0,10.0,6.0,'11111222,11111222,11111222' 
TCOON,ioos:station:TCOON:003:1,2004-10-09T21:00:00Z,26.8015,-97.4706,0.0,4.0,340.0,7.0,'11111222,11111222,11111222' 
TCOON,ioos:station:TCOON:003:1,2004-10-09T22:00:00Z,26.8015,-97.4706,0.0,3.0,10.0,4.0,'11111222,11111222,11111222' 
TCOON,ioos:station:TCOON:003:1,2004-10-09T23:00:00Z,26.8015,-97.4706,0.0,3.0,60.0,3.0,'11111222,11111222,11111222' 
TCOON,ioos:station:TCOON:003:1,2004-10-10T00:00:00Z,26.8015,-97.4706,0.0,1.0,50.0,2.0,'11111222,11111222,11111222' 
TCOON,ioos:station:TCOON:003:1,2004-10-10T01:00:00Z,26.8015,-97.4706,0.0,0.0,0.0,0.0,'11111222,11111222,11111222' 
TCOON,ioos:station:TCOON:003:1,2004-10-10T02:00:00Z,26.8015,-97.4706,0.0,0.0,0.0,0.0,'11111222,11111222,11111222' 
TCOON,ioos:station:TCOON:003:1,2004-10-10T03:00:00Z,26.8015,-97.4706,0.0,0.0,0.0,1.0,'11111222,11111222,11111222' 
TCOON,ioos:station:TCOON:003:1,2004-10-10T04:00:00Z,26.8015,-97.4706,0.0,0.0,0.0,0.0,'11111222,11111222,11111222' 
TCOON,ioos:station:TCOON:003:1,2004-10-10T05:00:00Z,26.8015,-97.4706,0.0,0.0,0.0,0.0,'11111222,11111222,11111222' 
TCOON,ioos:station:TCOON:003:1,2004-10-10T06:00:00Z,26.8015,-97.4706,0.0,0.0,0.0,2.0,'11111222,11111222,11111222' 
TCOON,ioos:station:TCOON:003:1,2004-10-10T07:00:00Z,26.8015,-97.4706,0.0,1.0,240.0,2.0,'11111222,11111222,11111222' 
TCOON,ioos:station:TCOON:003:1,2004-10-10T08:00:00Z,26.8015,-97.4706,0.0,1.0,240.0,2.0,'11111222,11111222,11111222' 
TCOON,ioos:station:TCOON:003:1,2004-10-10T09:00:00Z,26.8015,-97.4706,0.0,1.0,240.0,99.0,'11111222,11111222,11144222' 
TCOON,ioos:station:TCOON:003:1,2004-10-10T10:00:00Z,26.8015,-97.4706,0.0,4.0,320.0,5.0,'11111222,11111222,11111222' 
TCOON,ioos:station:TCOON:003:1,2004-10-10T11:00:00Z,26.8015,-97.4706,0.0,4.0,320.0,5.0,'11111222,11111222,11111222' 
TCOON,ioos:station:TCOON:003:1,2004-10-10T12:00:00Z,26.8015,-97.4706,0.0,4.0,320.0,5.0,'11111222,11111222,11111222' 
TCOON,ioos:station:TCOON:003:1,2004-10-10T13:00:00Z,26.8015,-97.4706,0.0,4.0,330.0,7.0,'11111222,11111222,11111222' 
TCOON,ioos:station:TCOON:003:1,2004-10-10T14:00:00Z,26.8015,-97.4706,0.0,6.0,350.0,7.0,'11111222,11111222,11111222' 
TCOON,ioos:station:TCOON:003:1,2004-10-10T15:00:00Z,26.8015,-97.4706,0.0,6.0,350.0,7.0,'11111222,11111222,11111222' 
TCOON,ioos:station:TCOON:003:1,2004-10-10T17:00:00Z,26.8015,-97.4706,0.0,4.0,360.0,5.0,'11111222,11144222,11111222' 
TCOON,ioos:station:TCOON:003:1,2004-10-10T18:00:00Z,26.8015,-97.4706,0.0,3.0,20.0,4.0,'11111222,11111222,11111222' 
TCOON,ioos:station:TCOON:003:1,2004-10-10T19:00:00Z,26.8015,-97.4706,0.0,1.0,0.0,3.0,'11111222,11111222,11111222' 
TCOON,ioos:station:TCOON:003:1,2004-10-10T20:00:00Z,26.8015,-97.4706,0.0,0.0,0.0,4.0,'11111222,11111222,11111222' 
TCOON,ioos:station:TCOON:003:1,2004-10-10T22:00:00Z,26.8015,-97.4706,0.0,4.0,90.0,4.0,'11111222,11111222,11111222' 
TCOON,ioos:station:TCOON:003:1,2004-10-10T23:00:00Z,26.8015,-97.4706,0.0,2.0,80.0,5.0,'11111222,11111222,11111222' 
TCOON,ioos:station:TCOON:003:1,2004-10-11T00:00:00Z,26.8015,-97.4706,0.0,4.0,140.0,6.0,'11111222,11111222,11111222' 
TCOON,ioos:station:TCOON:003:1,2004-10-11T01:00:00Z,26.8015,-97.4706,0.0,3.0,170.0,4.0,'11111222,11111222,11111222' 
TCOON,ioos:station:TCOON:003:1,2004-10-11T02:00:00Z,26.8015,-97.4706,0.0,3.0,170.0,5.0,'11111222,11111222,11111222' 
TCOON,ioos:station:TCOON:003:1,2004-10-11T03:00:00Z,26.8015,-97.4706,0.0,4.0,170.0,4.0,'11111222,11111222,11111222' 
TCOON,ioos:station:TCOON:003:1,2004-10-11T04:00:00Z,26.8015,-97.4706,0.0,4.0,180.0,6.0,'11111222,11111222,11111222' 
TCOON,ioos:station:TCOON:003:1,2004-10-11T05:00:00Z,26.8015,-97.4706,0.0,4.0,180.0,5.0,'11111222,11111222,11111222' 
TCOON,ioos:station:TCOON:003:1,2004-10-11T06:00:00Z,26.8015,-97.4706,0.0,3.0,220.0,4.0,'11111222,11111222,11111222' 
TCOON,ioos:station:TCOON:003:1,2004-10-11T08:00:00Z,26.8015,-97.4706,0.0,4.0,220.0,5.0,'11111222,11111222,11111222' 
TCOON,ioos:station:TCOON:003:1,2004-10-11T09:00:00Z,26.8015,-97.4706,0.0,3.0,220.0,4.0,'11111222,11111222,11111222' 
TCOON,ioos:station:TCOON:003:1,2004-10-11T10:00:00Z,26.8015,-97.4706,0.0,2.0,220.0,2.0,'11111222,11111222,11111222' 
TCOON,ioos:station:TCOON:003:1,2004-10-11T11:00:00Z,26.8015,-97.4706,0.0,2.0,220.0,3.0,'11111222,11111222,11111222' 